FW5642 Weather Reports


Display with metric or nautical units.
time (UTC)temp
F
wind
direction
speed
MPH
gust
MPH
rain 1hr
in
rain 24hr
in
rain mn
in
humidity
%
barometer
mb
20260504011537 85 19 1.0 6.0 0.00 0.00 0.00 27 1009.9
20260504010035 86 50 0.0 4.0 0.00 0.00 0.00 26 1010.1
20260504003037 88 360 1.0 6.0 0.00 0.00 0.00 25 1010.3
20260504001532 90 64 1.0 7.0 0.00 0.00 0.00 24 1010.5
20260503234535 90 330 1.0 7.0 0.00 0.00 0.00 25 1010.8
20260503233037 90 336 2.0 7.0 0.00 0.00 0.00 25 1011.0
20260503231531 90 8 2.0 8.0 0.00 0.00 0.00 24 1011.2
20260503230106 91 4 1.0 7.0 0.00 0.00 0.00 24 1011.5
20260503224535 91 57 1.0 5.0 0.00 0.00 0.00 25 1011.8
20260503223106 90 113 1.0 7.0 0.00 0.00 0.00 26 1012.0
20260503220034 88 56 2.0 8.0 0.00 0.00 0.00 27 1012.5
20260503214534 88 44 2.0 7.0 0.00 0.00 0.00 29 1012.7
20260503213035 88 354 1.0 5.0 0.00 0.00 0.00 31 1012.9
20260503211534 86 196 1.0 6.0 0.00 0.00 0.00 33 1013.2
20260503210033 85 304 1.0 4.0 0.00 0.00 0.00 33 1013.5
20260503204531 83 67 1.0 5.0 0.00 0.00 0.00 34 1013.6
20260503203033 82 24 3.0 6.0 0.00 0.00 0.00 35 1013.8
20260503201533 81 118 0.0 8.0 0.00 0.00 0.00 37 1014.0
20260503200029 80 63 1.0 5.0 0.00 0.00 0.00 38 1014.2
20260503194604 81 7 3.0 7.0 0.00 0.00 0.00 38 1014.4
20260503193031 81 345 2.0 7.0 0.00 0.00 0.00 39 1014.6
20260503184534 79 347 2.0 6.0 0.00 0.00 0.00 44 1015.1
20260503183029 78 342 2.0 6.0 0.00 0.00 0.00 47 1015.3
20260503181534 78 357 2.0 5.0 0.00 0.00 0.00 49 1015.5
20260503180031 76 345 1.0 4.0 0.00 0.00 0.00 52 1015.6
20260503174536 75 357 0.0 4.0 0.00 0.00 0.00 56 1015.8
20260503090107 55 90 0.0 0.0 0.00 0.00 0.00 84 1015.6
20260503081535 55 133 0.0 0.0 0.00 0.00 0.00 83 1015.5
20260503080143 55 106 0.0 0.0 0.00 0.00 0.00 81 1015.3
20260503054538 62 109 0.0 2.0 0.00 0.00 0.00 73 1015.1
20260503053150 62 81 0.0 2.0 0.00 0.00 0.00 73 1015.2
20260503051536 61 79 0.0 1.0 0.00 0.00 0.00 74 1015.1
20260503050121 61 111 1.0 5.0 0.00 0.00 0.00 73 1015.1
20260503044530 61 129 0.0 4.0 0.00 0.00 0.00 71 1015.0
20260503043037 63 120 0.0 6.0 0.00 0.00 0.00 67 1014.9
20260503041531 64 188 0.0 4.0 0.00 0.00 0.00 67 1014.7
20260503040041 63 65 1.0 4.0 0.00 0.00 0.00 69 1014.3
20260503033035 66 112 0.0 0.0 0.00 0.00 0.00 66 1013.8
20260503031530 67 105 0.0 3.0 0.00 0.00 0.00 64 1013.5
20260503030036 69 151 0.0 0.0 0.00 0.00 0.00 61 1013.2
20260503024534 71 124 0.0 3.0 0.00 0.00 0.00 58 1012.9
20260503023143 73 83 0.0 4.0 0.00 0.00 0.00 56 1012.7
20260503021533 74 108 0.0 3.0 0.00 0.00 0.00 57 1012.6
20260503020036 76 187 0.0 0.0 0.00 0.00 0.00 54 1012.4
20260503014529 78 247 0.0 0.0 0.00 0.00 0.00 46 1012.4
20260503013031 79 246 0.0 3.0 0.00 0.00 0.00 43 1012.5